Location: *
(28.2408°N, 53.4600°E)
Time: 15:57:52
(UTC+00:00)

ADEOS Rocket - Pass Details

Date: 22 September 2019
Orbit: 859 x 1306 km, 98.7° (Epoch: 20 October)

Event Time Altitude Azimuth Distance (km) Brightness Sun altitude
Rises 17:00:54 0° 3° (N) 4,189 6.5 -34.8°
Reaches altitude 10° 17:03:39 10° 357° (N) 3,258 6.0 -35.3°
Maximum altitude 17:10:46 45° 289° (WNW) 1,721 4.5 -36.8°
Drops below altitude 10° 17:18:00 10° 220° (SW) 3,305 5.9 -38.2°
Sets 17:20:49 0° 214° (SW) 4,254 6.4 -38.8°
